CFGMU CYKF-CYKF

Flight info

Callsign CFGMU
Flight time 0h 6m
Altitude 3000
Route VFR
Aircraft C172

Departure

Time 2026-05-06 01:29
Airport Region of Waterloo International Airport (CYKF)

Arrival

Time 2026-05-06 01:35
Airport Region of Waterloo International Airport (CYKF)
Time Latitude Longitude Altitude Speed Heading
2026-05-06 01:28 43.46021 -80.38332 1120 ft 68 kts 68°
2026-05-06 01:29 43.46210 -80.37695 1348 ft 72 kts 66°
2026-05-06 01:29 43.46401 -80.37017 1544 ft 79 kts 68°
2026-05-06 01:29 43.46686 -80.36358 1776 ft 81 kts 39°
2026-05-06 01:29 43.47207 -80.36151 2015 ft 84 kts 354°
2026-05-06 01:30 43.47747 -80.36457 2029 ft 86 kts 311°
2026-05-06 01:30 43.47857 -80.37219 2015 ft 88 kts 249°
2026-05-06 01:30 43.47625 -80.38007 2015 ft 88 kts 244°
2026-05-06 01:30 43.47341 -80.38758 2023 ft 89 kts 237°
2026-05-06 01:31 43.47049 -80.39495 2041 ft 88 kts 245°
2026-05-06 01:31 43.46816 -80.40234 2042 ft 82 kts 244°
2026-05-06 01:31 43.46554 -80.40926 2061 ft 77 kts 233°
2026-05-06 01:31 43.46103 -80.41037 1955 ft 70 kts 152°
2026-05-06 01:32 43.45697 -80.40689 1689 ft 67 kts 148°
2026-05-06 01:32 43.45488 -80.40160 1441 ft 65 kts 97°
2026-05-06 01:32 43.45583 -80.39586 1276 ft 68 kts 64°
2026-05-06 01:32 43.45802 -80.38998 1404 ft 72 kts 65°
2026-05-06 01:33 43.46028 -80.38326 1569 ft 82 kts 62°
2026-05-06 01:33 43.46471 -80.37860 1792 ft 86 kts 11°
2026-05-06 01:33 43.47040 -80.38053 2035 ft 85 kts 326°
2026-05-06 01:33 43.47351 -80.38752 2058 ft 92 kts 271°
2026-05-06 01:34 43.47183 -80.39561 2074 ft 87 kts 249°
2026-05-06 01:34 43.46929 -80.40222 2072 ft 66 kts 227°
2026-05-06 01:34 43.46495 -80.40275 1845 ft 70 kts 159°
2026-05-06 01:34 43.46073 -80.40007 1651 ft 67 kts 146°
2026-05-06 01:35 43.45743 -80.39557 1382 ft 66 kts 103°
2026-05-06 01:35 43.45789 -80.38980 1087 ft 60 kts 64°
2026-05-06 01:35 43.45931 -80.38572 1029 ft 40 kts 66°
2026-05-06 01:35 43.46103 -80.38075 1116 ft 67 kts 64°
2026-05-06 01:36 43.46308 -80.37453 1294 ft 78 kts 68°
2026-05-06 01:36 43.46519 -80.36758 1506 ft 81 kts 69°
2026-05-06 01:36 43.46740 -80.36024 1729 ft 84 kts 67°
2026-05-06 01:36 43.47130 -80.35436 1953 ft 89 kts 26°
2026-05-06 01:37 43.47723 -80.35452 2024 ft 91 kts 324°
2026-05-06 01:37 43.47954 -80.36218 1967 ft 95 kts 251°
2026-05-06 01:37 43.47514 -80.36930 1821 ft 101 kts 241°
2026-05-06 01:37 43.47207 -80.37758 1930 ft 92 kts 242°
2026-05-06 01:38 43.46973 -80.38575 1955 ft 92 kts 250°
2026-05-06 01:38 43.46876 -80.39431 1960 ft 90 kts 254°
2026-05-06 01:38 43.46660 -80.40234 1948 ft 90 kts 248°
2026-05-06 01:38 43.46376 -80.40879 1950 ft 70 kts 206°
2026-05-06 01:39 43.45969 -80.40728 1739 ft 63 kts 143°
2026-05-06 01:39 43.45613 -80.40349 1485 ft 68 kts 137°
2026-05-06 01:39 43.45520 -80.39782 1317 ft 63 kts 65°
2026-05-06 01:39 43.45704 -80.39245 1125 ft 62 kts 66°
2026-05-06 01:40 43.45867 -80.38760 1030 ft 44 kts 67°
2026-05-06 01:40 43.46020 -80.38257 1101 ft 68 kts 68°
2026-05-06 01:40 43.46222 -80.37621 1288 ft 77 kts 64°
2026-05-06 01:40 43.46478 -80.36895 1419 ft 90 kts 65°
2026-05-06 01:41 43.46799 -80.36196 1700 ft 81 kts 30°
2026-05-06 01:41 43.47325 -80.36238 1953 ft 82 kts 326°
2026-05-06 01:41 43.47560 -80.36931 1972 ft 88 kts 254°
2026-05-06 01:41 43.47350 -80.37745 1949 ft 91 kts 247°
2026-05-06 01:42 43.47118 -80.38556 1953 ft 91 kts 251°
2026-05-06 01:42 43.46879 -80.39358 1970 ft 90 kts 244°
2026-05-06 01:42 43.46617 -80.40155 1944 ft 92 kts 245°
2026-05-06 01:42 43.46339 -80.40952 1962 ft 91 kts 244°
2026-05-06 01:43 43.46067 -80.41727 2005 ft 87 kts 241°
2026-05-06 01:43 43.45606 -80.42082 2042 ft 82 kts 172°
2026-05-06 01:43 43.45123 -80.41678 1942 ft 82 kts 130°
2026-05-06 01:43 43.45070 -80.41020 1720 ft 72 kts 69°
2026-05-06 01:44 43.45284 -80.40441 1484 ft 63 kts 60°
2026-05-06 01:44 43.45489 -80.39893 1285 ft 64 kts 67°
2026-05-06 01:44 43.45674 -80.39341 1141 ft 64 kts 66°
2026-05-06 01:44 43.45849 -80.38821 1032 ft 48 kts 67°
2026-05-06 01:45 43.45909 -80.38618 1029 ft 16 kts 85°
2026-05-06 01:45 43.45868 -80.38497 1028 ft 13 kts 127°
2026-05-06 01:45 43.45843 -80.38454 1028 ft 0 kts 129°
2026-05-06 01:45 43.45842 -80.38452 1028 ft 3 kts 130°
2026-05-06 01:46 43.45801 -80.38435 1028 ft 8 kts 221°
2026-05-06 01:46 43.45788 -80.38507 1028 ft 8 kts 247°
2026-05-06 01:46 43.45763 -80.38580 1028 ft 9 kts 245°
2026-05-06 01:46 43.45741 -80.38647 1029 ft 8 kts 243°
2026-05-06 01:47 43.45716 -80.38715 1030 ft 7 kts 243°
2026-05-06 01:47 43.45696 -80.38774 1029 ft 8 kts 244°
2026-05-06 01:47 43.45668 -80.38858 1028 ft 10 kts 251°
2026-05-06 01:47 43.45658 -80.38938 1027 ft 8 kts 244°
2026-05-06 01:48 43.45636 -80.38999 1027 ft 6 kts 244°
2026-05-06 01:48 43.45608 -80.39033 1027 ft 5 kts 207°
2026-05-06 01:48 43.45569 -80.39075 1027 ft 8 kts 242°
2026-05-06 01:48 43.45536 -80.39102 1026 ft 7 kts 146°
2026-05-06 01:49 43.45509 -80.39070 1027 ft 3 kts 122°
2026-05-06 01:49 43.45494 -80.39051 1028 ft 0 kts 170°
2026-05-06 01:49 43.45490 -80.39049 1028 ft 3 kts 154°
2026-05-06 01:49 43.45485 -80.39046 1029 ft 1 kts 174°
2026-05-06 01:50 43.45481 -80.39053 1029 ft 0 kts 250°
2026-05-06 01:50 43.45468 -80.39040 1031 ft 4 kts 63°
2026-05-06 01:50 43.45476 -80.39044 1030 ft 1 kts 247°